Flag for U.S.A. Weather past 2 weeks in Warren, Michigan, U.S.A.

Now
55 °F

Sunny.


Feels Like: 52 °F
Forecast: 43 / 56 °F
Wind: 12 mph from Northeast

Location: Detroit City Airport

Current Time: Apr 18, 2015 at 8:18:13 PM

Latest Report: Apr 18, 2015 at 7:53 PM


Visibility: 10 mi

Pressure: 30.13 "Hg

Humidity: 42%

Dew point: 32 °F

Location of WarrenLocation

Historic Weather in Warren — Graph

°F

Warren temperature yesterday

Maximum temperature yesterday: 71 °F (at 2:53 PM)
Minimum temperature yesterday: 51 °F (at 6:01 AM)
Average temperature yesterday: 60 °F

Past Weeks' High & Low Weather Summary

 TemperatureHumidityPressure
High71 °F (Apr 13, 1:53 PM)100% (Apr 9, 3:53 AM)30.40 "Hg (Apr 9, 3:53 AM)
Low27 °F (Apr 4, 5:53 AM)16% (Apr 18, 6:53 PM)29.44 "Hg (Apr 10, 5:53 AM)
Average50 °F63%30.08 "Hg
* Reported Apr 3 6:53 PM — Apr 18 6:53 PM, Warren, Weather by CustomWeather, © 2015

Note: Actual official high and low records may vary slightly from our data, if they occured in-between our weather recording intervals... More about our weather records

Advertising

Warren weather history for previous 24 hours

 ConditionsComfort  
Time TempWeatherWind HumidityBarometerVisibility
6:53 PM
Sat, Apr 18
62 °FSunny.15 mph16%30.11 "Hg10 mi
5:53 PM62 °FSunny.16 mph21%30.11 "Hg10 mi
4:53 PM63 °FSunny.13 mph30%30.12 "Hg10 mi
3:53 PM64 °FSunny.15 mph34%30.12 "Hg10 mi
2:53 PM64 °FSunny.16 mph35%30.11 "Hg10 mi
1:53 PM64 °FSunny.18 mph34%30.09 "Hg10 mi
12:53 PM64 °FSunny.17 mph41%30.09 "Hg10 mi
11:53 AM70 °FSunny.10 mph34%30.07 "Hg10 mi
10:53 AM70 °FSunny.14 mph38%30.07 "Hg10 mi
9:53 AM67 °FScattered clouds.12 mph41%30.05 "Hg10 mi
8:53 AM62 °FScattered clouds.7 mph50%30.05 "Hg10 mi
7:53 AM54 °FSunny.5 mph64%30.03 "Hg10 mi
6:53 AM53 °FClear.5 mph66%30.02 "Hg10 mi
5:53 AM53 °FClear.6 mph66%30.01 "Hg9 mi
4:53 AM53 °FClear.5 mph69%30.01 "Hg10 mi
3:53 AM51 °FClear.3 mph77%30.00 "Hg9 mi
2:53 AM50 °FClear.No wind77%29.99 "Hg10 mi
1:53 AM53 °FClear.No wind69%30.00 "Hg10 mi
12:53 AM53 °FClear.No wind69%30.00 "Hg10 mi
11:53 PM
Fri, Apr 17
56 °FClear.5 mph65%30.00 "Hg10 mi
10:53 PM57 °FClear.3 mph62%30.01 "Hg10 mi
9:53 PM59 °FClear.3 mph62%30.01 "Hg10 mi
8:53 PM61 °FPassing clouds.6 mph60%30.00 "Hg10 mi
Weather by CustomWeather, © 2015

See weather overviewHow to use our weather pages